Regional Weather Roundup
Issued by NWS Mt. Holly, NJ

Home | Current Version | Previous Version | Text Only | Print | Product List | Glossary On
Versions: 1 2 3 4 5 6 7 8 9 10 11 12 13 14 15 16 17 18 19 20 21 22 23 24 25 26 27
000
ASUS41 KPHI 261412
RWRPHI

REGIONAL WEATHER ROUNDUP
NATIONAL WEATHER SERVICE MOUNT HOLLY NJ
1000 AM EDT THU MAY 26 2016

NOTE:  "FAIR" INDICATES FEW OR NO CLOUDS BELOW 12,000 FEET WITH NO
SIGNIFICANT WEATHER AND/OR OBSTRUCTIONS TO VISIBILITY.

 * = STATION DOES NOT REPORT PRECIPITATION (E.G. RAIN, SNOW, ETC.)
        OR FOG.

NJZ015>026-261500-
SOUTHERN NEW JERSEY

CITY           SKY/WX    TMP DP  RH WIND       PRES   REMARKS
POMONA         MOSUNNY   82  54  37 S9        30.13F
WILDWOOD*      MOSUNNY  N/A N/A N/A SW6       30.13F
MILLVILLE      SUNNY     81  59  47 W6        30.13F
WRIGHTSTOWN    SUNNY     81  58  45 W9        30.10F
MOUNT HOLLY    MOSUNNY   79  57  46 SW5       30.12F
TRENTON        MOSUNNY   80  57  45 SW3       30.11F

$$
NJZ001>014-261500-
NORTHERN NEW JERSEY

CITY           SKY/WX    TMP DP  RH WIND       PRES   REMARKS
SUSSEX         PTSUNNY   76  58  53 VRB3      30.11F
ANDOVER*         N/A     76  57  51 S3        30.12F
MORRISTOWN     PTSUNNY  N/A N/A N/A CALM      30.10F
NEWARK         PTSUNNY   84  52  33 CALM      30.09F
TETERBORO      SUNNY     80  50  34 CALM      30.09F
CALDWELL       MOSUNNY   79  55  43 CALM      30.10F
SOMERVILLE     MOSUNNY   80  60  50 CALM      30.09F
ALLAIRE*       SUNNY     82  57  42 W7        30.13F
TOMS RIVER*    SUNNY     84  54  34 W13       30.12F

$$
PAZ043-044-047-054-055-060>062-066>071-261500-
EASTERN PENNSYLVANIA

CITY           SKY/WX    TMP DP  RH WIND       PRES   REMARKS
PHILADELPHIA   PTSUNNY   76  58  53 SW6       30.12F
NORTH PHILA    SUNNY     80  60  50 VRB6      30.13F
BLUE BELL*     SUNNY     79  59  50 CALM      30.11F
DOYLESTOWN     MOSUNNY   78  55  44 SW3       30.11F
QUAKERTOWN*    MOSUNNY   79  59  50 CALM      30.13F
PERKASIE*      FAIR      77  57  50 CALM      30.13F
POTTSTOWN      MOSUNNY   77  60  55 CALM      30.13F
LANCASTER      SUNNY     77  57  50 VRB3      30.11F
COATESVILLE    MOSUNNY   77  59  53 CALM      30.14F
READING        CLOUDY    77  56  48 CALM      30.10F
ALLENTOWN      CLOUDY    77  57  50 CALM      30.12F
MOUNT POCONO   CLOUDY    70  48  45 W6        30.17S
HAZLETON       CLOUDY    70  55  60 CALM      30.17F
LEHIGHTON      FAIR      68  55  64 CALM      30.14F
WILKES BARRE   CLOUDY    70  57  63 E3        30.12F

$$
DEZALL-MDZ008-012-015-019-020-261500-
DELAWARE AND EASTERN MARYLAND

CITY           SKY/WX    TMP DP  RH WIND       PRES   REMARKS
WILMINGTON     CLOUDY    74  61  63 SE3       30.13F
DOVER          SUNNY     79  65  62 VRB3      30.11F
GEORGETOWN     SUNNY     80  60  50 SW7       30.13F
EASTON         MOSUNNY   81  66  61 SW5       30.16F
ABERDEEN       PTSUNNY   77  63  61 CALM      30.13F
PATUXENT       CLOUDY    78  62  57 E6        30.12F
OCEAN CITY     MOSUNNY   76  67  73 S5        30.14F
WALLOPS ISLAND PTSUNNY   80  65  59 SW7       30.15F
CAMBRIDGE      SUNNY     79  63  57 SW6       30.12F
SALISBURY      SUNNY     80  64  58 S6        30.13F

$$
PAZ001-021-NYZ056-072-MDZ011-DCZ001-261500-
OTHER NEARBY LOCATIONS

CITY           SKY/WX    TMP DP  RH WIND       PRES   REMARKS
HARRISBURG     MOSUNNY   73  58  59 CALM      30.10F
STATE COLLEGE  SUNNY     72  57  60 CALM      30.12F
WILLIAMSPORT   CLOUDY    67  54  63 CALM      30.10F
BINGHAMTON     PTSUNNY   72  54  53 S6        30.13F
NEW YORK CITY  SUNNY     78  51  38 W3        30.13F
BALTIMORE      PTSUNNY   78  58  49 SE3       30.10F
WASHINGTON DC  CLOUDY    73  62  68 S9        30.12F

$$




USA.gov is the U.S. government's official web portal to all federal, state and local government web resources and services.